Location: *
(50.2903°S, 172.5375°W)
Time: 07:25:36
(UTC+00:00)

Cosmos 1825 Rocket - Pass Details

Date: 17 November 2019
Orbit: 605 x 630 km, 82.5° (Epoch: 14 December)

Event Time Altitude Azimuth Distance (km) Brightness Sun altitude
Rises 13:49:54 0° 197° (SSW) 2,911 7.6 -12.8°
Reaches altitude 10° 13:52:15 10° 204° (SSW) 1,996 6.5 -12.5°
Maximum altitude 13:56:20 38° 271° (W) 954 4.2 -12.1°
Enters shadow 13:59:15 17° 332° (NNW) 1,571 5.0 -11.8°
